Weather History for KBUF - October, 2011

Change the Weather History Date:

Friday, October 14, 2011

  Actual Average Record
Temperature  
Mean Temperature 59 °F 51 °F  
Max Temperature 67 °F 60 °F 85 °F (1954)
Min Temperature 51 °F 43 °F 28 °F (1993)
Degree Days  
Heating Degree Days 6 14  
Month to date heating degree days 89 161  
Since 1 July heating degree days 166 323  
Cooling Degree Days 0 0  
Month to date cooling degree days 4 0  
Year to date cooling degree days 776 540  
Growing Degree Days 10 (Base 50)    
Moisture  
Dew Point 54 °F    
Average Humidity 76    
Maximum Humidity 87    
Minimum Humidity 64    
Precipitation  
Precipitation 0.48 in 0.11 in 1.67 in (1955)
Month to date precipitation 1.84 1.70  
Year to date precipitation 39.47 30.76  
Snow  
Snow 0.00 in 0.00 in T in (1983)
Month to date snowfall 0.0 0.2  
Since 1 July snowfall 0.0 0.2  
Since 1 September snowfall 0.0 0.2  
Snow Depth 0.00 in    
Sea Level Pressure  
Sea Level Pressure 29.35 in    
Wind  
Wind Speed 14 mph (SW)    
Max Wind Speed 24 mph    
Max Gust Speed 32 mph    
Visibility 8 miles    
Events Rain    
T = Trace of Precipitation, MM = Missing Value Source: NWS Daily Summary

Daily Weather History Graph

Daily Weather History Graph

Search for Another Location

Airport or City:

Trip Planner

Search our weather history database for the weather conditions in past years. The results will help you decide how hot, cold, wet, or windy it might be!

Date:

Astronomy

Oct. 14, 2011 Rise Set
Actual Time 7:26 AM EDT 6:34 PM EDT
Civil Twilight 6:58 AM EDT 7:02 PM EDT
Nautical Twilight 6:25 AM EDT 7:35 PM EDT
Astronomical Twilight 5:52 AM EDT 8:08 PM EDT
Moon 7:41 PM EDT (10/14) 9:58 AM EDT (10/14)
Length of Visible Light 12h 04m
Length of Day
11h 07m
Waning Gibbous, 94% of the Moon is Illuminated
Oct 14
Waning Gibbous
Oct 19
Last Quarter
Oct 26
New
Nov 2
First Quarter
Nov 10
Full

Hourly Weather History & Observations

Time (EDT) Temp. Dew Point Humidity Pressure Visibility Wind Dir Wind Speed Gust Speed Precip Events Conditions
12:54 AM 66.0 °F 57.9 °F 75% 29.39 in 10.0 mi SE 15.0 mph - N/A   Mostly Cloudy
1:54 AM 66.9 °F 59.0 °F 76% 29.37 in 10.0 mi SSE 12.7 mph - N/A   Mostly Cloudy
2:54 AM 66.0 °F 59.0 °F 78% 29.38 in 10.0 mi South 11.5 mph - 0.00 in Rain Light Rain
3:54 AM 64.0 °F 60.1 °F 87% 29.36 in 7.0 mi SSW 10.4 mph - 0.02 in Rain Light Rain
4:54 AM 63.0 °F 59.0 °F 87% 29.36 in 10.0 mi South 10.4 mph - 0.02 in   Mostly Cloudy
5:54 AM 63.0 °F 57.9 °F 84% 29.34 in 10.0 mi SSE 13.8 mph 20.7 mph N/A   Mostly Cloudy
6:54 AM 62.1 °F 57.0 °F 84% 29.35 in 10.0 mi South 13.8 mph - N/A   Scattered Clouds
7:54 AM 62.1 °F 57.0 °F 84% 29.33 in 10.0 mi South 9.2 mph - N/A   Mostly Cloudy
8:54 AM 62.6 °F 55.4 °F 77% 29.33 in 10.0 mi South 9.2 mph - N/A   Overcast
9:54 AM 64.0 °F 57.0 °F 78% 29.32 in 10.0 mi South 12.7 mph - N/A   Overcast
10:38 AM 60.8 °F 55.4 °F 82% 29.33 in 7.0 mi SW 17.3 mph 27.6 mph 0.00 in Rain Light Rain
10:54 AM 59.0 °F 55.9 °F 90% 29.33 in 4.0 mi SW 9.2 mph 19.6 mph 0.01 in Rain Light Rain
11:10 AM 60.8 °F 57.2 °F 88% 29.33 in 3.0 mi SSW 13.8 mph - 0.01 in Rain Light Rain
11:16 AM 60.8 °F 57.2 °F 88% 29.33 in 2.5 mi SSW 18.4 mph 24.2 mph 0.02 in Rain Light Rain
11:20 AM 59.0 °F 57.2 °F 94% 29.33 in 1.5 mi WSW 17.3 mph 24.2 mph 0.02 in Rain Rain
11:26 AM 59.0 °F 57.2 °F 94% 29.33 in 2.0 mi WSW 18.4 mph 25.3 mph 0.05 in Rain Rain
11:54 AM 59.0 °F 55.9 °F 90% 29.34 in 2.5 mi WSW 12.7 mph 24.2 mph 0.13 in Rain Rain
11:58 AM 59.0 °F 55.4 °F 88% 29.34 in 5.0 mi WSW 16.1 mph 24.2 mph 0.01 in Rain Light Rain
12:08 PM 59.0 °F 55.4 °F 88% 29.34 in 10.0 mi WSW 12.7 mph 27.6 mph 0.02 in Rain Light Rain
12:54 PM 59.0 °F 55.0 °F 87% 29.33 in 8.0 mi WSW 13.8 mph 21.9 mph 0.04 in Rain Light Rain
12:59 PM 59.0 °F 53.6 °F 82% 29.33 in 7.0 mi WSW 11.5 mph 21.9 mph 0.00 in Rain Light Rain
1:54 PM 59.0 °F 54.0 °F 83% 29.32 in 8.0 mi WSW 12.7 mph 20.7 mph 0.02 in Rain Light Rain
1:59 PM 59.0 °F 53.6 °F 82% 29.33 in 10.0 mi WSW 15.0 mph 20.7 mph 0.00 in Rain Light Rain
2:54 PM 57.9 °F 52.0 °F 81% 29.32 in 10.0 mi West 16.1 mph 27.6 mph 0.00 in Rain Light Rain
3:54 PM 57.9 °F 51.1 °F 78% 29.33 in 10.0 mi West 12.7 mph 24.2 mph 0.00 in Rain Light Rain
4:54 PM 55.9 °F 51.1 °F 84% 29.34 in 6.0 mi West 12.7 mph 21.9 mph 0.11 in Rain Light Rain
5:54 PM 55.0 °F 50.0 °F 83% 29.36 in 10.0 mi WSW 18.4 mph 26.5 mph 0.11 in Rain Light Rain
6:54 PM 55.0 °F 50.0 °F 83% 29.38 in 10.0 mi West 18.4 mph 31.1 mph 0.01 in Rain Light Rain
7:54 PM 55.0 °F 48.9 °F 80% 29.39 in 10.0 mi West 13.8 mph 19.6 mph 0.01 in   Overcast
8:54 PM 54.0 °F 46.0 °F 75% 29.41 in 10.0 mi West 15.0 mph 24.2 mph N/A   Overcast
9:54 PM 53.1 °F 45.0 °F 74% 29.42 in 10.0 mi West 17.3 mph 29.9 mph 0.00 in   Overcast
10:54 PM 53.1 °F 42.1 °F 66% 29.43 in 10.0 mi West 13.8 mph 23.0 mph N/A   Overcast
11:54 PM 53.1 °F 41.0 °F 64% 29.42 in 10.0 mi West 17.3 mph 26.5 mph N/A   Overcast